This is the latest recevied weather packets stored in our database for station/object XW7RMR. If no packets are shown the sender has not sent any weather packets the latest 10 day(s).
| Time | Temp. | Humidity | Pressure | Rain* | Wind** | Luminosity | Snow |
|---|---|---|---|---|---|---|---|
| 1777908422 | 12.78° C | 87% | 1012.5 hPa | 0 mm | - | 80 W/m² | - |
| 1777908119 | 12.78° C | 87% | 1012.3 hPa | 0 mm | - | 76 W/m² | - |
| 1777907815 | 12.78° C | 88% | 1012.5 hPa | 0 mm | - | 71 W/m² | - |
| 1777907510 | 12.78° C | 88% | 1012.3 hPa | 0 mm | - | 71 W/m² | - |
| 1777907207 | 12.78° C | 88% | 1012 hPa | 0 mm | - | 67 W/m² | - |
| 1777906904 | 12.78° C | 88% | 1012.1 hPa | 0 mm | - | 63 W/m² | - |
| 1777906601 | 12.78° C | 88% | 1012.1 hPa | 0 mm | - | 59 W/m² | - |
| 1777906297 | 12.78° C | 88% | 1011.9 hPa | 0 mm | - | 54 W/m² | - |
| 1777905994 | 12.78° C | 89% | 1012 hPa | 0 mm | - | 56 W/m² | - |
| 1777905690 | 12.22° C | 89% | 1011.9 hPa | 0 mm | - | 57 W/m² | - |
| 1777905387 | 12.22° C | 89% | 1012 hPa | 0 mm | - | 55 W/m² | - |
| 1777905085 | 12.22° C | 89% | 1011.9 hPa | 0 mm | - | 50 W/m² | - |
| 1777904782 | 12.22° C | 90% | 1011.8 hPa | 0 mm | - | 49 W/m² | - |
| 1777904479 | 12.22° C | 90% | 1011.6 hPa | 0 mm | - | 46 W/m² | - |
| 1777904175 | 12.22° C | 90% | 1011.6 hPa | 0 mm | - | 45 W/m² | - |
| 1777903873 | 12.22° C | 90% | 1011.6 hPa | 0 mm | - | 40 W/m² | - |
| 1777903569 | 12.22° C | 90% | 1011.5 hPa | 0 mm | - | 36 W/m² | - |
| 1777903265 | 12.22° C | 90% | 1011.4 hPa | 0 mm | - | 32 W/m² | - |
| 1777902962 | 11.67° C | 90% | 1011.4 hPa | 0 mm | - | 29 W/m² | - |
| 1777902658 | 11.67° C | 91% | 1011.1 hPa | 0 mm | - | 28 W/m² | - |
| 1777902356 | 11.67° C | 91% | 1011.3 hPa | 0 mm | - | 25 W/m² | - |
| 1777902053 | 11.67° C | 91% | 1011.3 hPa | 0 mm | - | 22 W/m² | - |
| 1777901751 | 11.67° C | 91% | 1010.9 hPa | 0 mm | - | 18 W/m² | - |
| 1777901448 | 11.67° C | 91% | 1011.2 hPa | 0 mm | - | 15 W/m² | - |
| 1777901146 | 11.67° C | 92% | 1011.1 hPa | 0 mm | - | 12 W/m² | - |
* Rain latest hour (hover to see other rain measurements)
** Current wind speed in m/s (hover to see current wind gust speed)